Regional Weather Roundup
Issued by NWS

Home | Current Version | Previous Version | Text Only | Print | Product List | Glossary Off
Versions: 1 2 3 4 5 6 7 8 9 10 11 12 13 14 15 16 17 18 19 20 21 22 23 24 25 26 27

000
ASUS43 KDMX 151307
RWRIA

WEATHER ROUNDUP FOR IOWA
NATIONAL WEATHER SERVICE DES MOINES IA
800 AM CDT TUE APR 15 2014

NOTE: "FAIR" INDICATES FEW OR NO CLOUDS BELOW 12,000 FEET WITH NO
SIGNIFICANT WEATHER AND/OR OBSTRUCTIONS TO VISIBILITY.

* - THESE STATIONS ARE NOT NWS STATIONS...THUS NOT UNDER NWS
QUALITY CONTROL.  THEY ALSO DO NOT REPORT WEATHER SUCH
AS PRECIPITATION OR FOG.

IAZ001>003-012>014-020>022-031>034-043>046-151400-
   NORTHWEST IOWA

CITY           SKY/WX    TMP DP  RH WIND       PRES   REMARKS
CARROLL *      SUNNY     25  18  74 N7        30.20R WCI  17
CHEROKEE *     SUNNY     21  18  86 CALM      30.20R
DENISON *      SUNNY     25  19  80 NE6       30.19R WCI  18
LE MARS *      SUNNY     21  18  86 CALM      30.20S
ORANGE CITY *  SUNNY     21  16  79 CALM      30.17S
SHELDON *      SUNNY     19  16  86 CALM      30.17S
SIOUX CITY     SUNNY     23  18  81 CALM      30.20R
SPENCER        SUNNY     21  15  78 N3        30.18R
STORM LAKE *   SUNNY     21  16  79 N3        30.18R
$$

IAZ055>058-069>071-079>083-090>094-151400-
   SOUTHWEST IOWA

CITY           SKY/WX    TMP DP  RH WIND       PRES   REMARKS
ATLANTIC *     MIX PCPN  25  19  80 NE5       30.19S WCI  19
AUDUBON *      SUNNY     25  19  80 N5        30.18S WCI  19
COUNCIL BLFS * SUNNY     27  21  80 CALM      30.19R
CRESTON *      SUNNY     27  21  80 N7        30.19R WCI  19
HARLAN  *      SUNNY     25  21  86 N3        30.23S
LAMONI         SUNNY     29  22  75 NW3       30.18S
RED OAK *      SUNNY     27  25  93 CALM      30.21R
SHENANDOAH *   SUNNY     27  25  93 CALM      30.22R
$$

IAZ047>049-059>061-072>074-084-151400-
   CENTRAL IOWA

CITY           SKY/WX    TMP DP  RH WIND       PRES   REMARKS
AMES           SUNNY     25  17  72 N10       30.20R WCI  15
ANKENY *       MOSUNNY   27  18  69 NW12      30.20R WCI  16
CHARITON *     SUNNY     28  21  74 NW7       30.20R WCI  21
DES MOINES     MOSUNNY   29  20  69 N8        30.21R WCI  21
GRINNELL*      SUNNY     27  21  80 NW9       30.18S WCI  17
KNOXVILLE *    CLOUDY    28  19  69 NW8       30.19S WCI  20
MARSHALLTOWN   SUNNY     25  16  68 NW12      30.18R WCI  14
NEWTON *       SUNNY     27  18  69 NW9       30.20R WCI  17
PELLA *        PTSUNNY   28  21  74 NW9       30.21R WCI  20
PERRY *          N/A     27  18  69 N9        30.20S WCI  17
$$

IAZ004>006-015-016-023>025-035-036-151400-
   NORTH CENTRAL IOWA

CITY           SKY/WX    TMP DP  RH WIND       PRES   REMARKS
ALGONA *       SUNNY     21  12  68 NW10      30.19R WCI  10
CLARION *      SUNNY     23  14  68 NW13      30.18S WCI  11
ESTHERVILLE    SUNNY     19  13  77 NW9       30.18R WCI   8
FORT DODGE *   SUNNY     23  14  68 N7        30.20R WCI  15
MASON CITY     SUNNY     21  12  68 NW13      30.17R WCI   9
FOREST CITY *  SUNNY     23  12  63 NW10      30.17R WCI  12
IOWA FALLS *     N/A     25  16  68 NW10      30.18S WCI  15
$$

IAZ007>011-017>019-026>030-037>042-050>054-066-151400-
   NORTHEAST IOWA

CITY           SKY/WX    TMP DP  RH WIND       PRES   REMARKS
CEDAR RAPIDS   SUNNY     27  17  66 NW13      30.15R WCI  16
CHARLES CITY * SUNNY     23  14  68 NW10      30.15R WCI  12
CLINTON *      CLOUDY    27  21  80 NW7       30.17R WCI  19
DECORAH *      SUNNY     25  18  74 NW10      30.11R WCI  15
DUBUQUE        MOSUNNY   27  19  72 NW9       30.11R WCI  18
MONTICELLO *   MOSUNNY   28  19  69 NW12G18   30.13R WCI  18
OELWEIN *      SUNNY    N/A N/A N/A NW15      30.15R
WATERLOO       SUNNY     25  14  63 NW13      30.16R WCI  14
$$

IAZ064-065-067-068-078-151400-
   EAST CENTRAL IOWA

CITY           SKY/WX    TMP DP  RH WIND       PRES   REMARKS
DAVENPORT      SUNNY     28  20  71 NW14      30.14R WCI  17
IOWA CITY      SUNNY     28  17  63 NW12      30.18R WCI  18
MT. PLEASANT * PTSUNNY   30  18  59 NW10      30.19R WCI  21
MUSCATINE *    SUNNY     30  19  64 NW10      30.18R WCI  21
QUAD CITIES    SUNNY     30  18  60 NW15      30.15R WCI  19
$$

IAZ062-063-075>077-085>089-095>099-151400-
   SOUTHEAST IOWA

CITY           SKY/WX    TMP DP  RH WIND       PRES   REMARKS
BURLINGTON     SUNNY     30  19  63 NW9       30.17R WCI  22
FAIRFIELD *    PTSUNNY   30  21  69 NW8       30.19R WCI  23
FORT MADISON * MOSUNNY   30  21  69 NW10      30.19R WCI  21
KEOKUK *       PTSUNNY   30  19  64 NW8       30.19R WCI  23
OSKALOOSA *    CLOUDY    28  21  74 NW10      30.19S WCI  19
CENTERVILLE *  MOSUNNY   28  23  80 NW8       30.20S WCI  20
OTTUMWA        CLOUDY    28  20  71 NW7       30.18R WCI  21
WASHINGTON *   SUNNY     28  19  69 NW10      30.18R WCI  19
$$

ABBREVIATIONS USED IN REMARKS
   TC - TEMPERATURES IN CELSIUS
  WCI - WIND CHILL INDEX
   HX - HEAT INDEX
  VSB - VISIBILITY
$$




USA.gov is the U.S. government's official web portal to all federal, state and local government web resources and services.